CAPE
0 0 0 0 1 1 1 2 2 2 2 3 3 2 1 0 0 0 0 1 2 3 3 2 4 2 2 0 0 0 0 0 0 0 0 0 0 0 0 0 0 0 0 0 0 0 0
0 0 0 0 1 3 2 2 2 1 1 3 2 1 0 0 0 0 0 1 0 0 2 5 1 6 1 0 0 0 0 0 0 0 0 0 0 0 0 0 0 0 0 0 0 0 0
0 0 0 1 1 1 1 2 2 2 4 3 1 0 0 0 1 0 0 0 0 0 0 0 6 4 1 0 0 0 0 0 0 0 0 0 0 0 0 0 0 0 0 0 0 0 0
0 0 1 1 1 1 2 2 3 4 6 6 1 0 0 0 2 0 0 0 0 0 0 0 2 0 0 0 0 0 0 0 0 0 0 0 0 0 0 0 0 0 0 0 0 0 0
0 1 1 1 2 3 4 5 5 6 4 4 1 0 0 1 1 0 0 0 0 0 0 2 0 0 0 0 0 0 0 0 0 0 0 0 0 0 0 0 0 0 0 0 0 0 0
0 1 3 3 5 4 6 3 2 3 6 4 0 0 0 2 0 0 0 0 0 0 0 9 0 2 0 0 0 0 0 0 0 0 0 0 0 0 0 0 0 0 0 0 0 0 0
2 3 3 4 4 7 0 11 5 2 2 0 0 0 0 1 0 0 0 0 0 0 0 0 0 0 0 0 0 0 0 0 0 0 0 0 0 0 0 0 0 0 0 0 0 0 0
2 3 3 4 3 0 0 1 1 3 5 1 0 0 0 0 0 0 0 0 1 0 0 0 0 0 0 0 0 0 0 0 0 0 0 0 0 0 0 0 0 0 0 0 0 0 0
1 2 3 0 0 0 1 1 1 1 6 0 0 0 0 0 0 0 0 0 0 4 0 0 0 0 0 0 0 0 0 0 0 0 0 0 0 0 0 0 0 0 0 0 0 0 0
2 5 2 1 0 1 1 2 2 4 5 0 0 0 0 0 0 0 0 0 0 1 0 0 0 0 0 0 0 0 0 0 0 0 0 0 0 0 0 0 0 0 0 0 0 0 0
5 1 1 3 0 1 1 4 4 5 8 0 0 0 0 0 0 0 0 0 0 0 0 0 0 0 0 0 0 0 0 0 0 0 0 0 0 0 0 0 0 0 0 0 0 0 0
7 1 0 4 2 3 10 8 4 3 0 0 0 0 0 0 0 0 0 0 0 0 0 0 0 0 0 0 0 0 0 0 0 0 0 0 0 0 0 0 0 0 0 0 0 0 0
0 3 7 6 10 14 16 15 8 4 0 0 0 0 0 0 0 0 0 0 0 0 0 0 0 0 0 0 0 0 0 0 0 0 0 0 0 0 0 0 0 0 0 0 0 0 0
6 6 5 11 17 16 17 17 19 9 16 14 0 0 0 0 0 0 0 0 0 0 0 0 0 0 0 0 0 0 0 0 0 0 0 0 0 0 0 0 0 0 0 0 0 0 0
7 4 12 15 17 21 26 29 27 20 11 6 0 0 0 0 0 0 0 0 0 0 0 0 0 0 0 0 0 0 0 0 0 0 0 0 0 0 0 0 0 0 0 0 0 0 0
4 11 14 18 26 29 35 38 43 17 7 1 0 0 0 0 0 0 0 0 0 0 0 0 0 0 0 0 0 0 0 0 0 0 0 0 0 0 0 0 0 0 0 0 0 0 0
7 16 17 24 30 37 36 32 8 7 14 7 0 0 0 0 0 0 0 0 0 0 0 0 0 0 0 0 0 6 5 0 0 0 0 0 0 0 0 0 0 0 0 0 0 0 0
15 17 14 19 21 25 35 9 0 4 14 2 1 1 0 0 0 0 0 0 0 0 0 0 0 0 0 0 0 0 3 0 0 0 0 0 0 0 0 0 0 0 0 0 0 0 0
15 18 22 14 25 31 43 4 0 18 31 10 1 0 0 4 1 0 0 0 0 0 0 0 0 0 0 0 0 1 0 0 0 0 0 0 0 0 0 0 0 0 0 0 0 0 0
22 22 35 35 36 30 45 13 0 14 33 2 1 1 0 0 1 0 0 0 1 0 0 0 0 0 0 0 0 0 0 0 0 0 0 1 0 0 0 0 0 0 0 0 0 0 0
34 45 41 32 27 9 29 26 0 28 35 2 4 2 7 0 0 0 7 0 0 0 0 0 0 0 0 0 0 0 0 0 0 0 0 0 0 0 0 0 0 0 0 0 0 0 0
16 14 25 6 6 15 16 16 21 24 26 1 6 2 0 0 0 5 0 0 0 0 0 0 0 0 0 0 0 0 0 0 0 0 0 0 0 0 0 0 0 0 0 0 0 0 0
13 8 8 8 7 7 14 12 39 59 47 3 4 2 1 0 0 0 0 0 0 2 0 3 0 0 0 0 0 0 0 0 0 0 0 6 0 0 0 0 0 0 0 0 0 0 0
2 6 7 5 22 28 35 25 42 67 85 38 1 1 0 0 0 0 0 0 0 0 0 0 0 0 0 0 0 0 0 0 0 0 0 1 1 0 0 0 0 0 0 0 0 0 0
5 3 14 22 28 32 25 18 34 60 100 32 11 7 0 0 0 0 0 0 0 0 0 0 0 0 0 0 0 0 0 0 0 0 0 0 0 0 0 0 0 0 0 0 0 0 0
7 10 20 25 24 28 50 51 62 51 54 31 11 22 2 9 0 0 1 0 0 0 0 0 0 0 0 0 0 0 0 0 0 0 0 0 0 0 0 0 0 0 0 0 0 0 0
11 8 17 26 21 29 52 60 50 50 51 26 1 16 1 0 0 0 0 1 0 0 0 0 0 0 0 0 0 0 0 0 0 0 0 0 0 0 0 0 0 0 0 0 0 0 0
13 14 19 21 21 13 30 32 37 39 31 16 3 11 2 0 0 1 4 2 0 0 0 0 0 0 0 0 0 0 0 0 0 0 0 0 0 0 0 0 0 0 0 0 0 0 0
11 15 14 13 11 9 11 11 16 32 16 13 2 0 0 3 0 0 1 0 1 0 1 0 0 0 0 0 0 0 0 0 0 0 0 0 0 0 0 0 0 0 0 0 0 0 0
CIN
-0 -0 -0 -0 -0 -0 -0 -0 -0 -0 -0 -0 -0 -0 -0 -0 -0 -0 -0 -0 -0 -0 -0 -0 -0 -0 -0 -0 -0 -0 -0 -0 -0 -0 -0 -0 -0 -0 -0 -0 -0 -0 -0 -0 -0 -0 -0
-0 -0 -0 -0 -0 -0 -0 -0 -0 -0 -0 -0 -0 -0 -0 -0 -0 -0 -0 -0 -0 -0 -0 -0 -0 -2 -0 -0 -0 -0 -0 -0 -0 -0 -0 -0 -0 -0 -0 -0 -0 -0 -0 -0 -0 -0 -0
-0 -0 -0 -0 -0 -0 -0 -0 -0 -1 -1 -0 -0 -0 -0 -0 -0 -0 -0 -0 -0 -0 -0 -0 -0 -3 -0 -0 -0 -0 -0 -0 -0 -0 -0 -0 -0 -0 -0 -0 -0 -0 -0 -0 -0 -0 -0
-0 -0 -0 -0 -0 -0 -0 -0 -0 -0 -1 -0 -1 -0 -0 -0 -0 -0 -0 -0 -0 -0 -0 -0 -0 -0 -0 -0 -0 -0 -0 -0 -0 -0 -0 -0 -0 -0 -0 -0 -0 -0 -0 -0 -0 -0 -0
-0 -0 -0 -0 -0 -0 -0 -0 -0 -0 -0 -0 -0 -0 -0 -0 -0 -0 -0 -0 -0 -0 -0 -0 -0 -0 -0 -0 -0 -0 -0 -0 -0 -0 -0 -0 -0 -0 -0 -0 -0 -0 -0 -0 -0 -0 -0
-0 -0 -0 -0 -0 -0 -0 -0 -0 -0 -0 -0 -0 -0 -0 -0 -0 -0 -0 -0 -0 -0 -0 -0 -0 -2 -0 -0 -0 -0 -0 -0 -0 -0 -0 -0 -0 -0 -0 -0 -0 -0 -0 -0 -0 -0 -0
-0 -0 -0 -0 -0 -0 -0 -0 -0 -1 -0 -0 -0 -0 -0 -0 -0 -0 -0 -0 -0 -0 -0 -0 -0 -0 -0 -0 -0 -0 -0 -0 -0 -0 -0 -0 -0 -0 -0 -0 -0 -0 -0 -0 -0 -0 -0
-0 -0 -0 -0 -0 -0 -0 -1 -0 -0 -0 -0 -0 -0 -0 -0 -0 -0 -0 -0 -0 -0 -0 -0 -0 -0 -0 -0 -0 -0 -0 -0 -0 -0 -0 -0 -0 -0 -0 -0 -0 -0 -0 -0 -0 -0 -0
-0 -0 -0 -0 -0 -1 -0 -1 -0 -0 -0 -0 -0 -0 -0 -0 -0 -0 -0 -0 -0 -4 -0 -0 -0 -0 -0 -0 -0 -0 -0 -0 -0 -0 -0 -0 -0 -0 -0 -0 -0 -0 -0 -0 -0 -0 -0
-0 -0 -2 -0 -1 -0 -0 -0 -0 -0 -0 -0 -0 -0 -0 -0 -0 -0 -0 -0 -0 -5 -0 -0 -0 -0 -0 -0 -0 -0 -0 -0 -0 -0 -0 -0 -0 -0 -0 -0 -0 -0 -0 -0 -0 -0 -0
-0 -0 -0 -0 -0 -0 -0 -0 -0 -0 -0 -0 -0 -0 -0 -0 -0 -0 -0 -0 -0 -0 -0 -0 -0 -0 -0 -0 -0 -0 -0 -0 -0 -0 -0 -0 -0 -0 -0 -0 -0 -0 -0 -0 -0 -0 -0
-0 -2 -1 -0 -1 -0 -0 -0 -0 -0 -0 -0 -0 -0 -0 -0 -0 -0 -0 -0 -0 -0 -0 -0 -0 -0 -0 -0 -0 -0 -0 -0 -0 -0 -0 -0 -0 -0 -0 -0 -0 -0 -0 -0 -0 -0 -0
-0 -0 -0 -0 -0 -1 -0 -0 -0 -0 -0 -0 -0 -0 -0 -0 -0 -0 -0 -0 -0 -0 -0 -0 -0 -0 -0 -0 -0 -0 -0 -0 -0 -0 -0 -0 -0 -0 -0 -0 -0 -0 -0 -0 -0 -0 -0
-1 -1 -0 -1 -1 -1 -1 -1 -0 -0 -0 -0 -0 -0 -0 -0 -0 -0 -0 -0 -0 -0 -0 -0 -0 -0 -0 -0 -0 -0 -0 -0 -0 -0 -0 -0 -0 -0 -0 -0 -0 -0 -0 -0 -0 -0 -0
-1 -1 -0 -1 -2 -0 -0 -0 -0 -0 -1 -2 -0 -0 -0 -0 -0 -0 -0 -0 -0 -0 -0 -0 -0 -0 -0 -0 -0 -0 -0 -0 -0 -0 -0 -0 -0 -0 -0 -0 -0 -0 -0 -0 -0 -0 -0
-1 -0 -1 -2 -0 -0 -0 -0 -0 -1 -3 -4 -0 -2 -0 -0 -0 -0 -0 -0 -0 -0 -0 -0 -0 -0 -0 -0 -0 -0 -0 -0 -0 -0 -0 -0 -0 -0 -0 -0 -0 -0 -0 -0 -0 -0 -0
-0 -1 -1 -0 -0 -0 -0 -1 -4 -0 -0 -0 -0 -0 -0 -0 -0 -0 -0 -0 -0 -0 -0 -0 -0 -0 -0 -0 -0 -3 -4 -0 -0 -0 -0 -0 -6 -0 -0 -0 -0 -0 -0 -0 -0 -0 -0
-1 -3 -0 -0 -0 -0 -0 -11 -0 -1 -0 -2 -0 -1 -0 -0 -0 -0 -0 -0 -0 -0 -0 -0 -0 -0 -0 -0 -0 -0 -8 -0 -0 -0 -0 -0 -0 -0 -0 -0 -0 -0 -0 -0 -0 -0 -0
-1 -0 -0 -0 -2 -0 -0 -10 -0 -5 -0 -1 -0 -0 -0 -40 -0 -0 -0 -0 -0 -0 -0 -0 -0 -0 -0 -0 -0 -1 -0 -0 -0 -0 -0 -0 -0 -0 -0 -0 -0 -0 -0 -0 -0 -0 -0
-0 -0 -0 -0 -0 -0 -0 -2 -0 -2 -0 -5 -2 -0 -0 -0 -8 -7 -0 -0 -2 -0 -0 -0 -0 -0 -0 -0 -1 -0 -0 -0 -0 -0 -0 -3 -0 -0 -0 -0 -0 -0 -0 -0 -0 -0 -0
-0 -0 -0 -0 -0 -0 -0 -0 -1 -0 -0 -1 -1 -2 -9 -0 -0 -2 -16 -0 -0 -7 -1 -0 -0 -0 -0 -0 -0 -0 -0 -0 -0 -0 -0 -0 -0 -0 -0 -0 -0 -0 -0 -0 -0 -0 -0
-0 -0 -0 -0 -0 -0 -0 -0 -1 -2 -1 -0 -0 -0 -0 -0 -0 -9 -0 -0 -0 -0 -0 -0 -0 -0 -0 -0 -0 -0 -0 -0 -0 -0 -0 -0 -0 -0 -0 -0 -0 -0 -0 -0 -0 -0 -0
-0 -0 -1 -0 -0 -1 -1 -0 -0 -0 -1 -1 -18 -1 -0 -0 -0 -0 -0 -0 -8 -2 -0 -16 -0 -0 -0 -0 -0 -0 -0 -0 -1 -0 -0 -3 -0 -0 -0 -0 -0 -0 -0 -0 -0 -0 -0
-0 -0 -0 -1 -1 -1 -0 -0 -0 -0 -1 -1 -6 -0 -0 -0 -0 -0 -0 -0 -0 -0 -0 -0 -0 -0 -0 -0 -0 -0 -0 -0 -0 -0 -0 -1 -5 -0 -0 -0 -0 -0 -0 -0 -0 -0 -0
-1 -1 -0 -1 -0 -3 -0 -0 -0 -0 -0 -1 -3 -1 -0 -19 -0 -0 -0 -0 -0 -0 -0 -0 -0 -0 -0 -0 -0 -0 -0 -0 -0 -0 -0 -0 -0 -0 -0 -0 -0 -0 -0 -0 -0 -0 -0
-0 -0 -0 -0 -4 -0 -0 -0 -0 -0 -0 -2 -2 -4 -8 -2 -0 -0 -1 -0 -0 -0 -0 -0 -0 -0 -0 -0 -0 -0 -0 -0 -0 -0 -0 -0 -0 -0 -0 -0 -0 -0 -0 -0 -0 -0 -0
-0 -0 -0 -0 -0 -0 -0 -0 -0 -4 -1 -1 -1 -2 -1 -5 -0 -5 -0 -0 -0 -0 -0 -0 -0 -0 -0 -0 -0 -0 -0 -0 -0 -0 -0 -0 -0 -0 -0 -0 -0 -0 -0 -0 -0 -0 -0
-0 -0 -0 -0 -0 -0 -1 -4 -2 -2 -6 -1 -0 -0 -0 -1 -0 -0 -0 -4 -0 -0 -0 -0 -0 -0 -0 -0 -0 -0 -0 -0 -0 -0 -0 -0 -0 -0 -0 -0 -0 -0 -0 -0 -0 -0 -0
-0 -0 -0 -0 -0 -0 -1 -0 -3 -5 -8 -0 -0 -0 -0 -0 -0 -0 -0 -0 -0 -0 -0 -0 -0 -0 -0 -0 -0 -0 -0 -0 -0 -0 -0 -0 -0 -0 -0 -0 -0 -0 -0 -0 -0 -0 -0
Wind_Speed
34 35 37 38 40 42 43 44 46 47 47 47 48 48 48 47 45 43 44 44 43 40 33 27 23 19 19 20 21 21 20 11 5 3 5 7 9 10 16 15 17 20 21 22 22 27 29
35 36 37 39 41 43 44 46 47 47 48 48 48 48 48 48 47 44 41 41 41 40 36 23 17 12 17 23 18 17 15 11 10 6 8 10 13 13 18 19 20 21 20 24 26 27 32
35 36 38 40 42 44 45 46 47 48 48 48 47 48 47 49 49 46 41 39 39 39 35 27 20 11 18 19 21 18 17 13 13 11 14 16 16 17 22 27 27 27 33 33 26 25 27
36 37 39 41 42 44 45 47 48 49 49 49 49 50 50 51 50 48 45 44 42 37 29 23 15 14 24 17 16 17 16 15 13 14 15 19 20 23 24 25 29 30 31 35 32 32 33
36 37 39 41 43 44 46 48 49 49 50 50 52 53 53 53 51 47 46 45 36 24 24 18 17 18 26 18 19 17 15 17 16 17 17 18 19 24 25 28 35 29 38 36 37 30 31
37 38 39 41 43 45 47 48 49 50 51 52 54 55 55 54 51 45 46 40 28 24 23 19 22 22 22 23 21 21 19 18 16 16 19 20 21 26 26 28 40 39 41 39 39 32 28
37 38 40 42 44 45 47 48 49 50 51 52 54 55 56 54 49 43 43 31 34 26 30 25 26 27 28 22 20 21 18 16 18 19 24 21 27 31 29 29 34 37 37 39 33 27 30
37 39 40 42 44 46 47 47 49 49 51 52 55 55 56 54 45 37 35 33 30 30 39 32 27 27 23 22 25 20 15 19 20 24 22 26 31 26 26 27 32 35 39 42 40 34 31
38 40 42 43 45 47 47 48 49 49 50 52 53 54 55 52 41 31 33 37 29 30 36 34 23 21 19 17 21 19 14 19 21 22 22 25 25 18 22 27 30 33 37 38 39 32 29
39 41 43 44 46 47 48 48 49 49 50 51 52 53 54 52 31 36 31 39 33 26 39 31 25 21 19 19 24 17 14 18 19 22 21 24 24 24 22 23 26 30 25 28 27 29 33
40 41 42 44 45 46 47 49 49 50 49 51 51 52 52 41 32 34 34 38 29 25 48 25 23 18 19 23 23 20 17 17 22 21 21 22 22 20 23 26 24 27 19 21 21 23 26
40 41 42 43 45 47 48 48 49 50 50 50 51 52 53 35 30 28 39 34 26 35 43 26 23 26 27 24 23 19 19 18 21 25 25 26 23 24 23 22 21 16 21 23 24 25 38
39 41 42 44 45 46 48 49 49 49 48 49 49 52 47 32 30 35 38 29 37 37 29 30 30 31 32 30 24 22 24 25 26 29 27 25 24 23 23 25 22 22 23 30 32 32 37
40 41 43 44 45 46 47 47 47 47 47 48 50 50 41 29 25 35 32 29 36 29 28 28 32 35 28 29 26 30 28 28 22 24 28 30 31 23 22 24 27 23 26 29 34 34 32
39 42 43 44 45 45 45 46 48 49 50 50 48 41 35 25 30 30 29 33 30 28 28 33 34 31 26 26 29 27 27 27 25 26 28 30 31 23 22 23 22 24 27 21 28 27 29
39 41 43 44 44 44 45 47 48 49 50 52 45 39 31 25 33 28 28 28 25 27 29 29 32 28 32 35 33 31 29 28 29 26 27 27 34 27 24 21 22 22 22 26 25 30 33
41 42 43 44 44 45 44 46 48 49 49 48 39 40 29 36 32 25 28 25 25 26 28 29 30 30 30 31 29 29 26 25 27 27 27 27 27 26 21 24 27 25 27 25 26 27 31
41 41 41 43 44 44 43 44 47 48 48 39 37 43 30 34 33 25 27 26 27 31 26 27 26 26 27 28 28 26 25 24 25 24 24 25 24 27 26 22 23 23 24 24 29 30 29
40 41 42 43 44 44 42 41 47 46 44 39 42 37 29 26 36 31 29 32 34 26 26 25 24 23 23 26 27 23 23 20 21 23 25 27 26 30 28 24 21 23 23 24 24 25 28
41 43 43 43 44 45 41 41 46 43 41 34 36 41 33 31 25 32 39 34 33 23 25 23 22 22 23 24 21 24 26 22 22 24 26 21 24 26 27 23 20 24 22 23 24 30 31
43 44 44 44 45 47 43 43 44 39 37 33 32 35 33 37 36 37 33 36 35 28 26 20 22 21 23 26 26 26 27 25 27 29 22 20 27 26 28 30 30 28 28 27 28 26 30
45 45 45 46 47 46 44 42 39 37 36 30 34 35 31 34 32 34 34 32 34 33 26 24 20 20 22 24 23 30 31 32 29 25 23 22 26 25 30 29 28 29 26 25 25 26 28
46 46 46 45 45 45 44 41 39 36 34 30 25 26 29 32 32 33 30 31 29 33 25 25 22 20 22 24 25 27 29 30 25 23 22 23 22 23 25 23 20 25 22 20 20 18 18
45 44 45 45 46 45 43 42 39 36 31 27 26 27 27 33 27 28 27 29 32 33 32 25 19 17 19 21 24 26 27 26 23 23 21 22 19 19 22 22 23 19 15 13 10 13 13
44 44 45 45 45 43 41 41 39 35 31 27 25 24 23 27 21 25 25 28 32 31 27 21 18 18 19 23 26 29 26 21 18 18 16 13 14 16 17 17 17 19 14 12 11 13 15
43 44 45 45 43 43 41 39 36 32 28 24 21 17 18 21 23 20 24 27 28 26 22 20 20 21 19 21 22 22 21 21 19 19 18 15 9 12 13 16 17 15 12 14 13 13 17
44 45 44 45 44 43 39 35 32 30 24 22 18 13 13 16 19 29 28 28 23 20 18 19 20 19 20 19 19 19 19 19 17 17 15 12 10 9 13 15 15 14 16 17 14 11 11
44 45 45 44 43 40 36 32 28 25 22 21 17 14 7 16 20 23 25 21 20 13 12 15 19 19 18 16 17 19 18 18 16 16 13 12 12 11 12 15 16 17 16 15 11 14 14
45 45 44 43 40 36 32 29 26 23 19 20 18 20 18 16 16 20 23 24 22 19 15 15 13 11 10 13 13 12 15 14 14 15 14 15 15 18 16 14 17 18 17 17 19 14 16
Wind_Direction
8 6 4 3 2 360 358 356 354 352 350 348 345 341 333 324 317 310 310 308 309 318 325 329 330 333 333 320 310 324 332 349 349 291 242 244 236 252 281 287 264 262 271 286 281 286 287
9 8 7 5 2 360 357 355 354 352 349 343 338 333 327 324 319 312 305 304 304 306 315 335 337 339 327 315 331 331 331 327 310 271 256 266 284 261 296 280 284 299 282 278 281 281 286
10 8 6 3 1 358 357 355 354 351 344 338 332 329 325 323 321 315 307 303 302 305 313 326 332 334 320 314 326 329 329 323 318 288 283 279 275 283 293 286 289 290 288 289 287 286 287
8 6 4 2 1 360 357 356 353 348 341 336 332 329 327 325 323 319 314 314 313 318 333 339 349 336 321 341 332 325 324 318 314 310 292 296 290 283 284 292 294 291 291 284 283 284 286
7 5 4 3 0 358 355 351 347 343 341 340 336 334 330 328 325 321 317 317 326 346 345 0 353 336 326 344 334 332 330 318 314 306 303 300 295 283 284 281 285 287 285 286 288 285 285
6 4 2 1 358 357 353 349 346 343 341 340 339 339 334 331 328 329 327 326 348 347 343 341 331 330 326 325 329 328 326 316 315 311 304 295 290 282 278 275 274 281 282 285 283 290 283
5 3 0 359 356 354 353 350 347 346 346 346 344 342 339 335 333 338 341 347 346 342 337 327 322 318 321 328 329 323 326 317 313 308 296 291 284 278 276 273 280 282 285 285 289 289 288
3 360 358 356 354 353 352 352 351 351 350 348 345 343 342 340 340 348 356 355 350 337 327 327 317 313 315 322 319 320 329 316 307 299 298 297 286 286 285 282 281 280 281 282 285 288 284
360 358 355 352 350 348 349 351 351 351 350 348 346 345 341 339 342 355 355 353 351 345 328 329 333 334 333 335 326 322 325 316 310 302 296 292 302 298 288 288 285 281 281 283 283 288 288
359 356 353 350 347 349 351 351 351 350 350 348 346 344 343 340 354 348 350 347 348 351 327 329 332 337 340 338 326 335 331 327 317 308 301 302 300 289 291 290 300 290 290 291 287 282 278
358 355 353 351 351 351 350 350 350 349 349 347 345 344 344 348 347 345 345 344 347 347 320 335 336 349 340 329 329 329 335 323 313 313 313 308 310 307 293 292 296 293 300 297 295 288 283
357 356 355 353 351 350 349 349 349 347 346 346 345 345 343 349 345 345 340 341 345 329 318 329 338 333 328 330 325 328 327 326 320 310 303 299 307 305 302 302 301 304 296 297 295 289 278
358 356 354 352 351 350 349 348 347 348 348 346 346 342 343 343 340 340 340 341 329 320 335 329 328 329 324 321 323 320 317 314 310 307 307 310 302 304 302 294 297 292 290 285 283 278 278
357 354 352 351 350 349 349 349 350 349 348 346 344 343 343 342 345 342 344 338 322 331 329 332 329 325 322 328 325 320 317 313 313 307 304 300 296 304 305 295 292 284 283 278 281 279 283
356 353 352 351 351 350 350 350 349 347 346 346 346 348 348 354 351 350 346 333 331 333 333 328 327 322 323 328 327 324 322 316 313 311 300 300 296 304 303 300 294 290 280 290 284 285 283
355 354 352 350 350 350 349 349 348 347 346 346 346 348 349 357 350 346 339 333 335 339 336 333 326 326 318 318 318 318 314 318 312 311 308 302 296 297 295 296 294 291 291 281 279 277 276
353 352 351 351 349 349 349 349 349 348 347 348 349 346 352 347 350 349 338 338 339 342 339 333 327 322 321 321 320 317 314 321 319 314 313 306 295 296 298 290 285 284 282 284 281 278 276
352 352 351 350 349 349 349 349 349 348 348 352 349 342 348 349 348 347 343 343 339 333 339 335 333 329 326 325 322 318 314 319 329 324 315 319 307 297 297 303 298 290 284 281 278 276 278
351 351 349 348 348 348 347 348 349 348 349 349 343 342 352 354 341 340 337 334 332 329 335 336 332 334 334 329 325 326 323 330 330 325 314 316 302 296 294 296 300 292 289 286 283 286 278
350 348 347 347 347 347 348 348 348 348 349 350 345 340 345 347 348 340 335 333 333 335 331 330 331 332 330 328 330 325 322 324 319 318 315 313 302 295 291 297 304 292 293 291 286 279 279
349 348 348 349 349 348 346 345 346 348 350 350 345 340 343 335 335 334 334 331 326 323 328 323 328 329 329 325 326 321 321 320 316 314 316 311 299 295 291 291 293 292 289 287 281 282 281
350 349 350 347 346 348 347 346 348 348 348 345 340 340 341 333 337 335 333 333 328 329 327 328 302 324 326 322 320 318 316 314 310 313 311 311 301 300 292 291 291 292 294 290 285 283 283
350 348 349 349 349 348 348 347 346 346 349 343 345 342 337 336 340 340 341 338 340 336 333 326 319 311 324 326 325 322 319 315 309 306 306 303 301 302 295 304 303 296 298 297 294 292 292
350 351 350 350 349 348 347 345 345 345 345 341 341 339 338 332 339 342 345 345 342 338 331 336 334 334 337 344 338 330 323 316 311 303 301 297 295 295 294 299 293 309 325 338 348 325 318
352 351 351 351 350 350 350 350 348 348 347 346 351 349 345 336 346 346 351 352 347 346 349 348 345 344 343 344 338 332 334 339 335 323 314 304 293 295 294 295 304 302 321 326 327 327 326
353 352 352 351 351 350 350 351 353 355 357 355 355 0 357 347 1 356 355 356 354 356 356 360 351 349 0 354 351 345 338 334 335 327 334 320 304 294 303 297 298 309 325 326 334 322 309
354 353 352 352 351 352 353 355 359 3 7 10 12 18 19 5 7 344 354 355 2 15 15 11 8 8 6 12 5 357 351 345 335 328 342 344 327 306 293 306 306 312 304 305 317 327 316
355 355 355 355 356 357 0 5 8 13 20 24 29 31 38 20 10 7 5 12 12 27 31 32 18 19 24 32 30 12 351 331 317 300 332 339 341 327 311 307 303 295 297 307 316 295 309
357 358 359 1 3 7 11 15 20 28 39 39 43 39 44 37 26 20 23 17 18 23 24 26 36 55 86 68 71 200 271 218 251 305 251 295 286 269 286 293 276 281 290 284 293 332 329